SPACEBEE-17 (46306 NORAD) Tracking and Keplerian Element Data

This shows tracking and keplerian element data for the satellite.

Feedback or suggestion? Click here.




ElementValue
Catalog46306
NameSPACEBEE-17
Epoch Orbit1349
Epoch Day336.88954772
Epoch Year2020
RAAN48.4148
Inclination97.5115
Eccentricity0.0001075
Argument of Perigee70.2513
Mean Anonmoly289.8833
Mean Motion15.11060419
Decay Rate6.347E-05
L11 46306U 20061AL 20336.88954772 .00006347 00000-0 38312-3 0 9992
L22 46306 97.5115 48.4148 0001075 70.2513 289.8833 15.11060419 13495

Live tracking and technical data element details for SPACEBEE-17 (NORAD 46306). SPACEBEE-17 can be tracked NOW for your location showing map with azimuth and elevation plus other details from your city location.

Track the satellite on the map from your city or location and see movement details for azimuth, elevation, latitude, longitude, range, height, and movement on the map or in text.







IsCatalogInMostPopularTable: catalog: 46306, numindb: 22
Update: records affected: 1



GetName: 46306 SPACEBEE-17

Hit Count: updated at: Thu, 03 Dec 2020 08:06:49 GMT